Location: Ellerstadt
(49.4644°N, 8.2615°E)
Time: 19:02:15
(UTC+00:00)

Vanguard 1 - Pass Details

Date: 21 June 2021
Orbit: 651 x 3831 km, 34.2° (Epoch: 29 July)

Event Time Altitude Azimuth Distance (km) Brightness Sun altitude
Rises 20:04:55 0° 229° (SW) 7,807 14.7 -4.2°
Reaches altitude 10° 20:10:34 10° 224° (SW) 6,903 14.4 -4.8°
Maximum altitude 20:31:19 43° 163° (SSE) 4,350 12.9 -7.1°
Drops below altitude 10° 20:46:55 10° 100° (E) 5,314 13.4 -8.7°
Sets 20:50:33 0° 93° (E) 5,952 13.7 -9.0°
